Location: Unspecified
(40.7945°N, 0.0000°E)
Time: 06:40:05
(UTC+00:00)

Altair - Pass Details

Date: 28 January 2021
Orbit: 1501 x 1682 km, 47.2° (Epoch: 28 February)

Event Time Altitude Azimuth Distance (km) Brightness Sun altitude
Rises 07:26:43 0° 283° (WNW) 4,905 9.5 1.4°
Reaches altitude 10° 07:29:57 10° 287° (WNW) 3,930 9.0 2.0°
Maximum altitude 07:40:00 62° 7° (N) 1,854 8.0 3.7°
Drops below altitude 10° 07:50:02 10° 88° (E) 3,923 10.8 5.3°
Sets 07:53:15 0° 92° (E) 4,896 11.4 5.8°
